OBJECT D

Satellite information

Favourite Embed

Satellite Type and Status

UNKNOWNIN ORBIT

Key statistics

Satellite OBJECT D at a glance.

Uptime

206

Days in orbit

Revolutions

≈ 15.2

Per day

Orbit

SSO

Sun Synchronous Orbit

Inclination

97.5

Latest

Satellite identification and parameters

Extended collection of information and parameters for OBJECT D.

Object identification

Identified? True

Debris? False

Object name: OBJECT D

International designator: 2025-108D

Object number (NORAD): 64090

Object ID (CCSDS): 64090

Country: PEOPLES REPUBLIC OF CHINA (PRC)

Current information (Y/N): Y

RCS size: MEDIUM

Orbital parameters

Period: 94.96 minutes

Inclination: 97.49 deg

SMA: 6894.764 km

Apoapsis: 524.526 km

Periapsis: 508.731 km

RAAN: 59.2115 deg

Eccentricy: 0.00114545

Argument of periapsis: 298.0728 deg

Mean anomaly: 61.9346 deg

Mean motion: 15.16434579 rev/day

Mean motion (dot): 0.00009857 rev/day2

B* drag term: 0.00050929273 1/REarth

Two-line elements (TLE)

Creation date: Dec. 12, 2025, 10:14 a.m.

Reference frame: TEME

Reference center: EARTH

Epoch: Dec. 12, 2025, 6:33 a.m. UTC

TLE line 0: 0 OBJECT D

TLE line 1: 1 64090U 25108D 25346.27351993 .00009857 00000-0 50929-3 0 9991

TLE line 2: 2 64090 97.4900 59.2115 0011455 298.0728 61.9346 15.16434579 31014

Live tracking on map

Real-time ground track for satellite OBJECT D.

In-orbit conjunctions

There are no conjunctions computed for OBJECT D, at the moment. Check back to stay up to date, as we update our databases every day.

Go to all conjunctions

Associated space launch

Carried 6 satellites to Sun-synchronous orbit, including commercial Earth observation satellites Taijing-3-04 & Taijing-4-02A: * Taijing-3-04 * Taijing-4-02A * Xingrui-11 * Xiguang-1 02 * Xingjiyuan-1 * Cube-108 001

OBJECT D was lifted into orbit during the mission ‘Kinetica 1 | 6 satellites’, on board a Kinetica 1 space rocket.

The launch took place on May 21, 2025, 4:05 a.m. from Launch Area 130.

For more information about the launch, click the button.

Launch to space Kinetica 1 | 6 satellites
Kinetica 1 | 6 satellites

Agency: N/A

Status: Launch Successful

Launch date: May 21, 2025, 4:05 a.m. UTC

Rocket: Kinetica 1

Launch pad: Launch Area 130

Location: Jiuquan Satellite Launch Center, People's Republic of China

...

Latest news about this satellite

News about space launch
Launch Roundup: SpaceX to start new Starlink shell; China, Russia to launch unknown payloads

This week, SpaceX will begin building a new shell for its Starlink constellation, launching from… The post Launch Roundup: SpaceX to start new Starlink shell; China, Russia to launch unknown payloads appeared first on NASASpaceFlight.com.


Newsletter sign-up

Weekly statistics, charts and insights to help you stay on top of the space industry.